Time,TemperatureF,DewpointF,PressureIn,WindDirection,WindDirectionDegrees,WindSpeedMPH,WindSpeedGustMPH,Humidity,HourlyPrecipIn,Conditions,Clouds,dailyrainin,SolarRadiationWatts/m^2,SoftwareType,DateUTC
2013-07-09 00:01:00,67.3,44.7,29.97,South,179,0.0,1.0,44,0.00,,---,0.00,0.00,VWS V14.01,2013-07-09 07:01:00,
2013-07-09 00:06:00,67.2,45.2,29.97,SSW,203,1.0,2.0,45,0.00,,---,0.00,0.00,VWS V14.01,2013-07-09 07:06:00,
2013-07-09 00:10:00,67.0,45.0,29.97,SSW,207,1.0,3.0,45,0.00,,---,0.00,0.00,VWS V14.01,2013-07-09 07:10:00,
2013-07-09 00:15:00,67.0,45.0,29.97,South,188,0.0,3.0,45,0.00,,---,0.00,0.00,VWS V14.01,2013-07-09 07:15:00,
2013-07-09 00:21:00,66.9,45.5,29.97,SW,218,1.0,3.0,46,0.00,,---,0.00,0.00,VWS V14.01,2013-07-09 07:21:00,
2013-07-09 00:26:00,66.9,45.5,29.97,South,178,0.0,3.0,46,0.00,,---,0.00,0.00,VWS V14.01,2013-07-09 07:26:00,
2013-07-09 00:31:00,66.5,45.1,29.97,South,179,0.0,0.0,46,0.00,,---,0.00,0.00,VWS V14.01,2013-07-09 07:31:00,
2013-07-09 00:36:00,66.1,45.3,29.97,South,178,0.0,2.0,47,0.00,,---,0.00,0.00,VWS V14.01,2013-07-09 07:36:00,
2013-07-09 00:40:00,65.7,45.5,29.97,South,180,0.0,2.0,48,0.00,,---,0.00,0.00,VWS V14.01,2013-07-09 07:40:00,
2013-07-09 00:45:00,65.3,45.7,29.97,SSW,210,0.0,3.0,49,0.00,,---,0.00,0.00,VWS V14.01,2013-07-09 07:45:00,
2013-07-09 00:52:00,65.4,45.8,29.97,SW,215,0.0,3.0,49,0.00,,---,0.00,0.00,VWS V14.01,2013-07-09 07:52:00,
2013-07-09 00:57:00,65.6,45.4,29.97,South,190,0.0,3.0,48,0.00,,---,0.00,0.00,VWS V14.01,2013-07-09 07:57:00,
2013-07-09 01:02:00,65.5,45.3,29.97,South,181,0.0,1.0,48,0.00,,---,0.00,0.00,VWS V14.01,2013-07-09 08:02:00,
2013-07-09 01:07:00,65.1,45.5,29.97,SSW,211,0.0,2.0,49,0.00,,---,0.00,0.00,VWS V14.01,2013-07-09 08:07:00,
2013-07-09 01:12:00,65.0,45.4,29.97,SSW,196,0.0,2.0,49,0.00,,---,0.00,0.00,VWS V14.01,2013-07-09 08:12:00,
2013-07-09 01:17:00,64.8,45.2,29.97,SSW,202,0.0,2.0,49,0.00,,---,0.00,0.00,VWS V14.01,2013-07-09 08:17:00,
2013-07-09 01:22:00,64.4,44.8,29.97,SSW,204,0.0,2.0,49,0.00,,---,0.00,0.00,VWS V14.01,2013-07-09 08:22:00,
2013-07-09 01:27:00,64.1,45.1,29.97,SW,223,0.0,3.0,50,0.00,,---,0.00,0.00,VWS V14.01,2013-07-09 08:27:00,
2013-07-09 01:32:00,63.9,44.9,29.97,SW,221,0.0,0.0,50,0.00,,---,0.00,0.00,VWS V14.01,2013-07-09 08:32:00,
2013-07-09 01:37:00,63.6,44.6,29.96,SSW,212,0.0,2.0,50,0.00,,---,0.00,0.00,VWS V14.01,2013-07-09 08:37:00,
2013-07-09 01:42:00,63.5,45.1,29.96,SSW,211,0.0,2.0,51,0.00,,---,0.00,0.00,VWS V14.01,2013-07-09 08:42:00,
2013-07-09 01:47:00,63.3,44.4,29.96,SSW,206,1.0,2.0,50,0.00,,---,0.00,0.00,VWS V14.01,2013-07-09 08:47:00,
2013-07-09 01:52:00,63.2,44.3,29.96,South,172,0.0,2.0,50,0.00,,---,0.00,0.00,VWS V14.01,2013-07-09 08:52:00,
2013-07-09 01:57:00,63.1,44.2,29.96,SSW,207,0.0,2.0,50,0.00,,---,0.00,0.00,VWS V14.01,2013-07-09 08:57:00,
2013-07-09 02:02:00,62.9,44.5,29.96,WSW,239,0.0,0.0,51,0.00,,---,0.00,0.00,VWS V14.01,2013-07-09 09:02:00,
2013-07-09 02:07:00,62.8,44.9,29.96,SW,228,0.0,2.0,52,0.00,,---,0.00,0.00,VWS V14.01,2013-07-09 09:07:00,
2013-07-09 02:12:00,62.8,44.4,29.96,SW,225,0.0,3.0,51,0.00,,---,0.00,0.00,VWS V14.01,2013-07-09 09:12:00,
2013-07-09 02:17:00,62.7,44.3,29.96,SW,225,0.0,3.0,51,0.00,,---,0.00,0.00,VWS V14.01,2013-07-09 09:17:00,
2013-07-09 02:22:00,62.5,44.2,29.96,SW,225,0.0,3.0,51,0.00,,---,0.00,0.00,VWS V14.01,2013-07-09 09:22:00,
2013-07-09 02:27:00,62.3,44.0,29.96,SW,225,0.0,3.0,51,0.00,,---,0.00,0.00,VWS V14.01,2013-07-09 09:27:00,
2013-07-09 02:32:00,62.1,44.3,29.96,SW,225,0.0,0.0,52,0.00,,---,0.00,0.00,VWS V14.01,2013-07-09 09:32:00,
2013-07-09 02:37:00,62.0,44.2,29.96,SW,225,0.0,0.0,52,0.00,,---,0.00,0.00,VWS V14.01,2013-07-09 09:37:00,
2013-07-09 02:42:00,61.8,44.5,29.96,SW,225,0.0,0.0,53,0.00,,---,0.00,0.00,VWS V14.01,2013-07-09 09:42:00,
2013-07-09 02:47:00,61.6,43.8,29.96,SW,225,0.0,0.0,52,0.00,,---,0.00,0.00,VWS V14.01,2013-07-09 09:47:00,
2013-07-09 02:52:00,61.5,44.2,29.96,SW,225,0.0,0.0,53,0.00,,---,0.00,0.00,VWS V14.01,2013-07-09 09:52:00,
2013-07-09 02:57:00,61.3,44.0,29.96,SW,225,0.0,0.0,53,0.00,,---,0.00,0.00,VWS V14.01,2013-07-09 09:57:00,
2013-07-09 03:02:00,61.2,44.0,29.97,SW,225,0.0,0.0,53,0.00,,---,0.00,0.00,VWS V14.01,2013-07-09 10:02:00,
2013-07-09 03:07:00,61.0,43.8,29.96,SW,225,0.0,0.0,53,0.00,,---,0.00,0.00,VWS V14.01,2013-07-09 10:07:00,
2013-07-09 03:12:00,60.7,44.0,29.96,SW,225,0.0,0.0,54,0.00,,---,0.00,0.00,VWS V14.01,2013-07-09 10:12:00,
2013-07-09 03:17:00,60.6,43.9,29.96,SW,225,0.0,0.0,54,0.00,,---,0.00,0.00,VWS V14.01,2013-07-09 10:17:00,
2013-07-09 03:22:00,60.4,43.7,29.96,SW,225,0.0,1.0,54,0.00,,---,0.00,0.00,VWS V14.01,2013-07-09 10:22:00,
2013-07-09 03:27:00,60.3,43.6,29.96,SW,225,0.0,1.0,54,0.00,,---,0.00,0.00,VWS V14.01,2013-07-09 10:27:00,
2013-07-09 03:32:00,60.2,43.5,29.96,SW,225,0.0,0.0,54,0.00,,---,0.00,0.00,VWS V14.01,2013-07-09 10:32:00,
2013-07-09 03:37:00,60.0,43.3,29.96,SW,225,0.0,0.0,54,0.00,,---,0.00,0.00,VWS V14.01,2013-07-09 10:37:00,
2013-07-09 03:42:00,59.9,43.2,29.96,SW,225,0.0,0.0,54,0.00,,---,0.00,0.00,VWS V14.01,2013-07-09 10:42:00,
2013-07-09 03:47:00,59.8,43.1,29.96,SW,225,0.0,1.0,54,0.00,,---,0.00,0.00,VWS V14.01,2013-07-09 10:47:00,
2013-07-09 03:52:00,59.8,43.1,29.96,SW,225,0.0,1.0,54,0.00,,---,0.00,0.00,VWS V14.01,2013-07-09 10:52:00,
2013-07-09 03:57:00,59.7,43.5,29.96,SW,225,0.0,1.0,55,0.00,,---,0.00,0.00,VWS V14.01,2013-07-09 10:57:00,
2013-07-09 04:02:00,59.6,43.4,29.96,SW,225,0.0,0.0,55,0.00,,---,0.00,0.00,VWS V14.01,2013-07-09 11:02:00,
2013-07-09 04:07:00,59.4,43.2,29.96,SW,225,0.0,2.0,55,0.00,,---,0.00,0.00,VWS V14.01,2013-07-09 11:07:00,
2013-07-09 04:12:00,59.3,43.2,29.96,SW,225,0.0,2.0,55,0.00,,---,0.00,0.00,VWS V14.01,2013-07-09 11:12:00,
2013-07-09 04:17:00,59.2,43.1,29.96,SW,225,0.0,2.0,55,0.00,,---,0.00,0.00,VWS V14.01,2013-07-09 11:17:00,
2013-07-09 04:22:00,59.1,43.4,29.96,SW,225,0.0,2.0,56,0.00,,---,0.00,0.00,VWS V14.01,2013-07-09 11:22:00,
2013-07-09 04:27:00,59.0,43.8,29.96,SW,225,0.0,2.0,57,0.00,,---,0.00,0.00,VWS V14.01,2013-07-09 11:27:00,
2013-07-09 04:32:00,58.9,43.2,29.96,SW,225,0.0,1.0,56,0.00,,---,0.00,0.00,VWS V14.01,2013-07-09 11:32:00,
2013-07-09 04:37:00,58.9,43.7,29.96,SW,225,0.0,1.0,57,0.00,,---,0.00,0.00,VWS V14.01,2013-07-09 11:37:00,
2013-07-09 04:42:00,58.8,43.6,29.96,SW,225,0.0,1.0,57,0.00,,---,0.00,0.00,VWS V14.01,2013-07-09 11:42:00,
2013-07-09 04:47:00,58.8,43.6,29.96,SW,225,0.0,1.0,57,0.00,,---,0.00,0.00,VWS V14.01,2013-07-09 11:47:00,
2013-07-09 04:52:00,58.7,43.5,29.96,SW,225,0.0,1.0,57,0.00,,---,0.00,0.00,VWS V14.01,2013-07-09 11:52:00,
2013-07-09 04:57:00,58.6,43.0,29.96,SW,225,0.0,1.0,56,0.00,,---,0.00,0.00,VWS V14.01,2013-07-09 11:57:00,
2013-07-09 05:03:00,58.5,42.9,29.96,SW,225,0.0,0.0,56,0.00,,---,0.00,0.00,VWS V14.01,2013-07-09 12:03:00,
2013-07-09 05:08:00,58.5,42.9,29.96,SW,225,0.0,0.0,56,0.00,,---,0.00,0.00,VWS V14.01,2013-07-09 12:08:00,
2013-07-09 05:13:00,58.4,42.8,29.97,SW,225,0.0,1.0,56,0.00,,---,0.00,0.00,VWS V14.01,2013-07-09 12:13:00,
2013-07-09 05:18:00,58.3,42.7,29.97,SW,226,1.0,1.0,56,0.00,,---,0.00,0.00,VWS V14.01,2013-07-09 12:18:00,
2013-07-09 05:23:00,58.3,42.7,29.97,SW,226,1.0,2.0,56,0.00,,---,0.00,0.00,VWS V14.01,2013-07-09 12:23:00,
2013-07-09 05:28:00,58.2,43.1,29.97,WSW,244,0.0,2.0,57,0.00,,---,0.00,0.00,VWS V14.01,2013-07-09 12:28:00,
2013-07-09 05:33:00,58.1,42.5,29.97,WSW,244,0.0,0.0,56,0.00,,---,0.00,5.00,VWS V14.01,2013-07-09 12:33:00,
2013-07-09 05:38:00,58.0,42.4,29.97,WSW,244,0.0,1.0,56,0.00,,---,0.00,5.00,VWS V14.01,2013-07-09 12:38:00,
2013-07-09 05:43:00,58.0,42.4,29.97,West,265,1.0,2.0,56,0.00,,---,0.00,7.00,VWS V14.01,2013-07-09 12:43:00,
2013-07-09 05:48:00,58.1,42.5,29.97,West,265,0.0,2.0,56,0.00,,---,0.00,9.00,VWS V14.01,2013-07-09 12:48:00,
2013-07-09 05:53:00,58.2,44.8,29.97,West,265,0.0,2.0,61,0.00,,---,0.00,11.00,VWS V14.01,2013-07-09 12:53:00,
2013-07-09 05:58:00,58.2,43.1,29.97,West,265,0.0,2.0,57,0.00,,---,0.00,12.00,VWS V14.01,2013-07-09 12:58:00,
2013-07-09 06:03:00,58.3,43.6,29.97,NNW,338,0.0,3.0,58,0.00,,---,0.00,14.00,VWS V14.01,2013-07-09 13:03:00,
2013-07-09 06:08:00,58.7,43.1,29.97,WNW,295,2.0,4.0,56,0.00,,---,0.00,16.00,VWS V14.01,2013-07-09 13:08:00,
2013-07-09 06:13:00,59.1,43.0,29.97,NNW,341,0.0,4.0,55,0.00,,---,0.00,18.00,VWS V14.01,2013-07-09 13:13:00,
2013-07-09 06:18:00,59.4,43.2,29.97,North,351,3.0,4.0,55,0.00,,---,0.00,19.00,VWS V14.01,2013-07-09 13:18:00,
2013-07-09 06:23:00,59.7,43.5,29.97,North,355,2.0,4.0,55,0.00,,---,0.00,19.00,VWS V14.01,2013-07-09 13:23:00,
2013-07-09 06:28:00,59.8,43.6,29.97,NNW,333,1.0,4.0,55,0.00,,---,0.00,21.00,VWS V14.01,2013-07-09 13:28:00,
2013-07-09 06:33:00,59.9,43.2,29.97,North,350,3.0,4.0,54,0.00,,---,0.00,21.00,VWS V14.01,2013-07-09 13:33:00,
2013-07-09 06:38:00,60.1,42.9,29.97,North,351,2.0,4.0,53,0.00,,---,0.00,23.00,VWS V14.01,2013-07-09 13:38:00,
2013-07-09 06:43:00,60.2,44.0,29.97,North,349,0.0,4.0,55,0.00,,---,0.00,23.00,VWS V14.01,2013-07-09 13:43:00,
2013-07-09 06:48:00,60.4,45.6,29.98,North,360,4.0,5.0,58,0.00,,---,0.00,25.00,VWS V14.01,2013-07-09 13:48:00,
2013-07-09 06:53:00,60.5,43.8,29.98,WNW,296,3.0,6.0,54,0.00,,---,0.00,28.00,VWS V14.01,2013-07-09 13:53:00,
2013-07-09 06:58:00,60.6,45.3,29.97,North,360,3.0,6.0,57,0.00,,---,0.00,26.00,VWS V14.01,2013-07-09 13:58:00,
2013-07-09 07:03:00,60.7,45.8,29.97,NNE,30,2.0,4.0,58,0.00,,---,0.00,28.00,VWS V14.01,2013-07-09 14:03:00,
2013-07-09 07:08:00,60.6,46.2,29.97,NNW,333,2.0,4.0,59,0.00,,---,0.00,28.00,VWS V14.01,2013-07-09 14:08:00,
2013-07-09 07:13:00,60.5,45.7,29.98,NNE,21,2.0,5.0,58,0.00,,---,0.00,51.00,VWS V14.01,2013-07-09 14:13:00,
2013-07-09 07:18:00,60.4,46.0,29.98,NE,36,2.0,5.0,59,0.00,,---,0.00,28.00,VWS V14.01,2013-07-09 14:18:00,
2013-07-09 07:23:00,60.4,46.0,29.97,NE,39,1.0,8.0,59,0.00,,---,0.00,32.00,VWS V14.01,2013-07-09 14:23:00,
2013-07-09 07:28:00,60.3,45.9,29.97,NNE,28,3.0,8.0,59,0.00,,---,0.00,30.00,VWS V14.01,2013-07-09 14:28:00,
2013-07-09 07:33:00,60.4,46.0,29.97,NNE,30,1.0,4.0,59,0.00,,---,0.00,30.00,VWS V14.01,2013-07-09 14:33:00,
2013-07-09 07:38:00,60.6,46.2,29.97,NNE,25,2.0,5.0,59,0.00,,---,0.00,32.00,VWS V14.01,2013-07-09 14:38:00,
2013-07-09 07:43:00,60.8,46.4,29.97,NNE,32,3.0,5.0,59,0.00,,---,0.00,33.00,VWS V14.01,2013-07-09 14:43:00,
2013-07-09 07:47:00,61.1,46.7,29.98,NNE,22,5.0,7.0,59,0.00,,---,0.00,51.00,VWS V14.01,2013-07-09 14:47:00,
2013-07-09 07:52:00,61.4,47.4,29.98,NNW,331,3.0,7.0,60,0.00,,---,0.00,40.00,VWS V14.01,2013-07-09 14:52:00,
2013-07-09 07:57:00,61.7,46.8,29.98,NNE,32,3.0,7.0,58,0.00,,---,0.00,44.00,VWS V14.01,2013-07-09 14:57:00,
2013-07-09 08:02:00,62.0,46.6,29.98,NNE,26,1.0,2.0,57,0.00,,---,0.00,54.00,VWS V14.01,2013-07-09 15:02:00,
2013-07-09 08:07:00,62.2,47.3,29.98,North,5,1.0,3.0,58,0.00,,---,0.00,98.00,VWS V14.01,2013-07-09 15:07:00,
2013-07-09 08:12:00,62.6,47.2,29.98,NNE,17,0.0,3.0,57,0.00,,---,0.00,279.00,VWS V14.01,2013-07-09 15:12:00,
2013-07-09 08:17:00,63.0,47.1,29.98,North,9,0.0,3.0,56,0.00,,---,0.00,390.00,VWS V14.01,2013-07-09 15:17:00,
2013-07-09 08:22:00,63.4,46.5,29.98,ENE,63,0.0,4.0,54,0.00,,---,0.00,406.00,VWS V14.01,2013-07-09 15:22:00,
2013-07-09 08:27:00,63.7,46.8,29.98,North,5,1.0,4.0,54,0.00,,---,0.00,420.00,VWS V14.01,2013-07-09 15:27:00,
2013-07-09 08:32:00,64.1,47.1,29.98,NE,52,1.0,3.0,54,0.00,,---,0.00,436.00,VWS V14.01,2013-07-09 15:32:00,
2013-07-09 08:37:00,64.5,47.0,29.98,NE,55,3.0,4.0,53,0.00,,---,0.00,452.00,VWS V14.01,2013-07-09 15:37:00,
2013-07-09 08:42:00,64.9,46.9,29.98,NNE,17,2.0,6.0,52,0.00,,---,0.00,468.00,VWS V14.01,2013-07-09 15:42:00,
2013-07-09 08:47:00,65.3,47.2,29.98,North,360,0.0,6.0,52,0.00,,---,0.00,482.00,VWS V14.01,2013-07-09 15:47:00,
2013-07-09 08:52:00,65.8,47.7,29.98,ENE,59,3.0,6.0,52,0.00,,---,0.00,489.00,VWS V14.01,2013-07-09 15:52:00,
2013-07-09 08:57:00,66.3,47.1,29.98,NE,55,3.0,6.0,50,0.00,,---,0.00,83.00,VWS V14.01,2013-07-09 15:57:00,
2013-07-09 09:02:00,66.7,47.0,29.98,ENE,77,1.0,3.0,49,0.00,,---,0.00,524.00,VWS V14.01,2013-07-09 16:02:00,
2013-07-09 09:07:00,67.0,46.7,29.98,East,87,0.0,3.0,48,0.00,,---,0.00,427.00,VWS V14.01,2013-07-09 16:07:00,
2013-07-09 09:12:00,67.4,47.6,29.98,NE,40,1.0,4.0,49,0.00,,---,0.00,121.00,VWS V14.01,2013-07-09 16:12:00,
2013-07-09 09:17:00,68.0,47.6,29.98,NNW,342,3.0,4.0,48,0.00,,---,0.00,541.00,VWS V14.01,2013-07-09 16:17:00,
2013-07-09 09:22:00,68.6,48.2,29.98,NE,51,2.0,5.0,48,0.00,,---,0.00,582.00,VWS V14.01,2013-07-09 16:22:00,
2013-07-09 09:27:00,69.1,48.0,29.98,NE,53,0.0,5.0,47,0.00,,---,0.00,592.00,VWS V14.01,2013-07-09 16:27:00,
2013-07-09 09:32:00,69.5,47.8,29.97,ENE,63,3.0,4.0,46,0.00,,---,0.00,606.00,VWS V14.01,2013-07-09 16:32:00,
2013-07-09 09:37:00,69.9,47.0,29.97,NE,55,1.0,4.0,44,0.00,,---,0.00,621.00,VWS V14.01,2013-07-09 16:37:00,
2013-07-09 09:42:00,70.5,47.0,29.97,NW,304,0.0,4.0,43,0.00,,---,0.00,633.00,VWS V14.01,2013-07-09 16:42:00,
2013-07-09 09:47:00,71.5,47.2,29.97,North,10,2.0,4.0,42,0.00,,---,0.00,645.00,VWS V14.01,2013-07-09 16:47:00,
2013-07-09 09:52:00,72.1,46.5,29.97,East,90,0.0,4.0,40,0.00,,---,0.00,659.00,VWS V14.01,2013-07-09 16:52:00,
2013-07-09 09:57:00,72.5,46.2,29.97,NE,34,3.0,4.0,39,0.00,,---,0.00,671.00,VWS V14.01,2013-07-09 16:57:00,
2013-07-09 10:02:00,72.7,45.7,29.97,East,100,0.0,3.0,38,0.00,,---,0.00,682.00,VWS V14.01,2013-07-09 17:02:00,
2013-07-09 10:07:00,73.5,47.0,29.97,ESE,108,1.0,5.0,39,0.00,,---,0.00,694.00,VWS V14.01,2013-07-09 17:07:00,
2013-07-09 10:12:00,73.9,46.7,29.96,East,79,0.0,5.0,38,0.00,,---,0.00,707.00,VWS V14.01,2013-07-09 17:12:00,
2013-07-09 10:17:00,74.2,46.3,29.96,West,270,1.0,6.0,37,0.00,,---,0.00,722.00,VWS V14.01,2013-07-09 17:17:00,
2013-07-09 10:22:00,74.7,43.7,29.96,East,94,0.0,6.0,33,0.00,,---,0.00,735.00,VWS V14.01,2013-07-09 17:22:00,
2013-07-09 10:27:00,75.1,44.8,29.96,NNE,17,1.0,6.0,34,0.00,,---,0.00,745.00,VWS V14.01,2013-07-09 17:27:00,
2013-07-09 10:32:00,76.0,42.4,29.96,NNW,342,1.0,4.0,30,0.00,,---,0.00,758.00,VWS V14.01,2013-07-09 17:32:00,
2013-07-09 10:37:00,76.5,44.5,29.96,ENE,61,3.0,4.0,32,0.00,,---,0.00,765.00,VWS V14.01,2013-07-09 17:37:00,
2013-07-09 10:42:00,76.7,44.7,29.96,ENE,60,4.0,5.0,32,0.00,,---,0.00,777.00,VWS V14.01,2013-07-09 17:42:00,
2013-07-09 10:47:00,76.8,43.0,29.95,SSE,153,0.0,5.0,30,0.00,,---,0.00,784.00,VWS V14.01,2013-07-09 17:47:00,
2013-07-09 10:52:00,77.0,45.7,29.95,ESE,117,2.0,5.0,33,0.00,,---,0.00,795.00,VWS V14.01,2013-07-09 17:52:00,
2013-07-09 10:57:00,77.6,44.6,29.95,WSW,245,0.0,5.0,31,0.00,,---,0.00,805.00,VWS V14.01,2013-07-09 17:57:00,
2013-07-09 11:02:00,78.5,46.2,29.95,SW,225,0.0,4.0,32,0.00,,---,0.00,814.00,VWS V14.01,2013-07-09 18:02:00,
2013-07-09 11:07:00,79.0,48.3,29.95,North,5,0.0,4.0,34,0.00,,---,0.00,824.00,VWS V14.01,2013-07-09 18:07:00,
2013-07-09 11:12:00,79.2,48.4,29.95,ENE,76,2.0,5.0,34,0.00,,---,0.00,830.00,VWS V14.01,2013-07-09 18:12:00,
2013-07-09 11:17:00,79.6,45.5,29.95,ENE,73,0.0,5.0,30,0.00,,---,0.00,838.00,VWS V14.01,2013-07-09 18:17:00,
2013-07-09 11:22:00,79.9,46.6,29.94,East,83,5.0,5.0,31,0.00,,---,0.00,847.00,VWS V14.01,2013-07-09 18:22:00,
2013-07-09 11:27:00,80.2,45.1,29.95,SE,142,0.0,5.0,29,0.00,,---,0.00,854.00,VWS V14.01,2013-07-09 18:27:00,
2013-07-09 11:32:00,80.3,45.2,29.94,SE,138,2.0,4.0,29,0.00,,---,0.00,863.00,VWS V14.01,2013-07-09 18:32:00,
2013-07-09 11:37:00,80.6,45.4,29.94,NE,41,0.0,6.0,29,0.00,,---,0.00,872.00,VWS V14.01,2013-07-09 18:37:00,
2013-07-09 11:42:00,81.1,43.0,29.94,West,264,1.0,6.0,26,0.00,,---,0.00,877.00,VWS V14.01,2013-07-09 18:42:00,
2013-07-09 11:47:00,81.6,47.2,29.94,SSW,211,3.0,6.0,30,0.00,,---,0.00,884.00,VWS V14.01,2013-07-09 18:47:00,
2013-07-09 11:52:00,82.0,43.8,29.94,SW,224,2.0,6.0,26,0.00,,---,0.00,891.00,VWS V14.01,2013-07-09 18:52:00,
2013-07-09 11:57:00,82.4,43.1,29.94,WSW,257,1.0,6.0,25,0.00,,---,0.00,896.00,VWS V14.01,2013-07-09 18:57:00,
2013-07-09 12:02:00,83.0,42.5,29.94,WSW,250,1.0,7.0,24,0.00,,---,0.00,905.00,VWS V14.01,2013-07-09 19:02:00,
2013-07-09 12:07:00,83.7,43.1,29.94,WSW,240,1.0,7.0,24,0.00,,---,0.00,907.00,VWS V14.01,2013-07-09 19:07:00,
2013-07-09 12:12:00,84.1,43.5,29.93,West,272,0.0,7.0,24,0.00,,---,0.00,912.00,VWS V14.01,2013-07-09 19:12:00,
2013-07-09 12:17:00,84.4,43.7,29.93,East,84,0.0,7.0,24,0.00,,---,0.00,918.00,VWS V14.01,2013-07-09 19:17:00,
2013-07-09 12:22:00,84.7,44.0,29.93,SW,228,2.0,7.0,24,0.00,,---,0.00,921.00,VWS V14.01,2013-07-09 19:22:00,
2013-07-09 12:27:00,85.3,44.5,29.92,East,94,2.0,7.0,24,0.00,,---,0.00,928.00,VWS V14.01,2013-07-09 19:27:00,
2013-07-09 12:32:00,85.7,46.9,29.92,SE,139,0.0,3.0,26,0.00,,---,0.00,926.00,VWS V14.01,2013-07-09 19:32:00,
2013-07-09 12:37:00,86.1,47.2,29.92,ENE,61,2.0,7.0,26,0.00,,---,0.00,933.00,VWS V14.01,2013-07-09 19:37:00,
2013-07-09 12:42:00,86.5,43.2,29.92,ESE,102,2.0,9.0,22,0.00,,---,0.00,933.00,VWS V14.01,2013-07-09 19:42:00,
2013-07-09 12:47:00,86.8,44.6,29.91,ENE,62,7.0,9.0,23,0.00,,---,0.00,937.00,VWS V14.01,2013-07-09 19:47:00,
2013-07-09 12:52:00,86.8,43.4,29.91,ENE,66,1.0,9.0,22,0.00,,---,0.00,935.00,VWS V14.01,2013-07-09 19:52:00,
2013-07-09 12:57:00,87.2,46.0,29.91,NE,43,7.0,9.0,24,0.00,,---,0.00,935.00,VWS V14.01,2013-07-09 19:57:00,
2013-07-09 13:02:00,87.8,45.4,29.91,NE,47,2.0,5.0,23,0.00,,---,0.00,935.00,VWS V14.01,2013-07-09 20:02:00,
2013-07-09 13:07:00,88.2,44.6,29.91,NNW,337,5.0,10.0,22,0.00,,---,0.00,937.00,VWS V14.01,2013-07-09 20:07:00,
2013-07-09 13:12:00,88.5,46.0,29.91,ENE,58,0.0,10.0,23,0.00,,---,0.00,935.00,VWS V14.01,2013-07-09 20:12:00,
2013-07-09 13:17:00,88.8,43.9,29.91,NW,310,0.0,10.0,21,0.00,,---,0.00,940.00,VWS V14.01,2013-07-09 20:17:00,
2013-07-09 13:22:00,89.1,42.8,29.90,West,278,3.0,10.0,20,0.00,,---,0.00,937.00,VWS V14.01,2013-07-09 20:22:00,
2013-07-09 13:27:00,89.5,44.5,29.90,SW,236,4.0,10.0,21,0.00,,---,0.00,935.00,VWS V14.01,2013-07-09 20:27:00,
2013-07-09 13:32:00,90.1,42.3,29.90,NNE,28,3.0,10.0,19,0.00,,---,0.00,935.00,VWS V14.01,2013-07-09 20:32:00,
2013-07-09 13:37:00,90.4,43.9,29.90,WSW,239,5.0,10.0,20,0.00,,---,0.00,937.00,VWS V14.01,2013-07-09 20:37:00,
2013-07-09 13:42:00,90.6,39.9,29.90,NW,305,1.0,10.0,17,0.00,,---,0.00,933.00,VWS V14.01,2013-07-09 20:42:00,
2013-07-09 13:47:00,90.2,38.0,29.90,SW,219,1.0,10.0,16,0.00,,---,0.00,942.00,VWS V14.01,2013-07-09 20:47:00,
2013-07-09 13:52:00,90.1,42.3,29.90,South,180,0.0,10.0,19,0.00,,---,0.00,925.00,VWS V14.01,2013-07-09 20:52:00,
2013-07-09 13:57:00,90.4,39.7,29.90,SE,144,1.0,10.0,17,0.00,,---,0.00,932.00,VWS V14.01,2013-07-09 20:57:00,
2013-07-09 14:02:00,90.9,38.5,29.90,SSE,157,0.0,5.0,16,0.00,,---,0.00,921.00,VWS V14.01,2013-07-09 21:02:00,
2013-07-09 14:07:00,91.5,42.1,29.90,SSE,161,2.0,5.0,18,0.00,,---,0.00,919.00,VWS V14.01,2013-07-09 21:07:00,
2013-07-09 14:12:00,91.7,45.0,29.89,NNE,32,4.0,6.0,20,0.00,,---,0.00,914.00,VWS V14.01,2013-07-09 21:12:00,
2013-07-09 14:17:00,92.3,41.2,29.89,West,266,1.0,9.0,17,0.00,,---,0.00,905.00,VWS V14.01,2013-07-09 21:17:00,
2013-07-09 14:22:00,92.7,41.5,29.89,WSW,238,5.0,9.0,17,0.00,,---,0.00,896.00,VWS V14.01,2013-07-09 21:22:00,
2013-07-09 14:27:00,92.8,44.5,29.89,ESE,109,2.0,9.0,19,0.00,,---,0.00,904.00,VWS V14.01,2013-07-09 21:27:00,
2013-07-09 14:32:00,92.9,41.7,29.89,East,80,0.0,3.0,17,0.00,,---,0.00,904.00,VWS V14.01,2013-07-09 21:32:00,
2013-07-09 14:37:00,93.0,43.3,29.89,NE,36,4.0,5.0,18,0.00,,---,0.00,896.00,VWS V14.01,2013-07-09 21:37:00,
2013-07-09 14:42:00,93.2,40.4,29.88,North,9,4.0,7.0,16,0.00,,---,0.00,895.00,VWS V14.01,2013-07-09 21:42:00,
2013-07-09 14:47:00,93.4,35.3,29.88,NE,49,2.0,7.0,13,0.00,,---,0.00,881.00,VWS V14.01,2013-07-09 21:47:00,
2013-07-09 14:52:00,93.9,35.7,29.88,NNE,33,2.0,7.0,13,0.00,,---,0.00,881.00,VWS V14.01,2013-07-09 21:52:00,
2013-07-09 14:57:00,94.0,33.7,29.88,ENE,74,0.0,7.0,12,0.00,,---,0.00,868.00,VWS V14.01,2013-07-09 21:57:00,
2013-07-09 15:02:00,94.5,38.0,29.88,NE,39,0.0,5.0,14,0.00,,---,0.00,865.00,VWS V14.01,2013-07-09 22:02:00,
2013-07-09 15:07:00,94.6,32.0,29.88,NE,36,2.0,6.0,11,0.00,,---,0.00,858.00,VWS V14.01,2013-07-09 22:07:00,
2013-07-09 15:12:00,94.4,42.9,29.88,SSE,153,2.0,6.0,17,0.00,,---,0.00,847.00,VWS V14.01,2013-07-09 22:12:00,
2013-07-09 15:17:00,94.4,41.3,29.88,West,259,5.0,8.0,16,0.00,,---,0.00,835.00,VWS V14.01,2013-07-09 22:17:00,
2013-07-09 15:22:00,93.9,42.5,29.88,SSW,213,4.0,10.0,17,0.00,,---,0.00,826.00,VWS V14.01,2013-07-09 22:22:00,
2013-07-09 15:27:00,94.2,41.2,29.87,South,180,3.0,10.0,16,0.00,,---,0.00,814.00,VWS V14.01,2013-07-09 22:27:00,
2013-07-09 15:32:00,94.7,43.2,29.87,SSE,164,2.0,5.0,17,0.00,,---,0.00,807.00,VWS V14.01,2013-07-09 22:32:00,
2013-07-09 15:37:00,95.0,44.9,29.87,SW,225,0.0,9.0,18,0.00,,---,0.00,791.00,VWS V14.01,2013-07-09 22:37:00,
2013-07-09 15:42:00,95.3,42.1,29.87,WSW,240,6.0,9.0,16,0.00,,---,0.00,777.00,VWS V14.01,2013-07-09 22:42:00,
2013-07-09 15:47:00,94.7,41.6,29.87,WSW,241,2.0,9.0,16,0.00,,---,0.00,768.00,VWS V14.01,2013-07-09 22:47:00,
2013-07-09 15:52:00,94.1,41.1,29.87,SW,232,3.0,9.0,16,0.00,,---,0.00,758.00,VWS V14.01,2013-07-09 22:52:00,
2013-07-09 15:57:00,93.5,40.6,29.87,WNW,283,3.0,9.0,16,0.00,,---,0.00,752.00,VWS V14.01,2013-07-09 22:57:00,
2013-07-09 16:02:00,93.5,42.2,29.86,WSW,242,2.0,6.0,17,0.00,,---,0.00,744.00,VWS V14.01,2013-07-09 23:02:00,
2013-07-09 16:07:00,93.8,42.4,29.86,South,188,4.0,6.0,17,0.00,,---,0.00,729.00,VWS V14.01,2013-07-09 23:07:00,
2013-07-09 16:12:00,94.0,44.1,29.86,SSW,200,2.0,9.0,18,0.00,,---,0.00,714.00,VWS V14.01,2013-07-09 23:12:00,
2013-07-09 16:17:00,94.3,42.8,29.86,SW,216,6.0,9.0,17,0.00,,---,0.00,712.00,VWS V14.01,2013-07-09 23:17:00,
2013-07-09 16:22:00,94.6,43.1,29.86,WSW,237,1.0,9.0,17,0.00,,---,0.00,708.00,VWS V14.01,2013-07-09 23:22:00,
2013-07-09 16:27:00,94.7,46.1,29.85,SSE,148,3.0,10.0,19,0.00,,---,0.00,610.00,VWS V14.01,2013-07-09 23:27:00,
2013-07-09 16:32:00,94.6,41.5,29.85,SSW,208,4.0,4.0,16,0.00,,---,0.00,636.00,VWS V14.01,2013-07-09 23:32:00,
2013-07-09 16:37:00,94.6,46.0,29.85,East,85,0.0,13.0,19,0.00,,---,0.00,656.00,VWS V14.01,2013-07-09 23:37:00,
2013-07-09 16:42:00,95.1,41.9,29.85,SSW,208,4.0,13.0,16,0.00,,---,0.00,640.00,VWS V14.01,2013-07-09 23:42:00,
2013-07-09 16:47:00,95.2,43.6,29.85,SW,230,2.0,13.0,17,0.00,,---,0.00,633.00,VWS V14.01,2013-07-09 23:47:00,
2013-07-09 16:52:00,95.4,42.1,29.85,SSW,196,0.0,13.0,16,0.00,,---,0.00,619.00,VWS V14.01,2013-07-09 23:52:00,
2013-07-09 16:57:00,95.2,42.0,29.85,SSW,194,4.0,13.0,16,0.00,,---,0.00,606.00,VWS V14.01,2013-07-09 23:57:00,
2013-07-09 17:02:00,94.9,40.1,29.85,SW,228,2.0,4.0,15,0.00,,---,0.00,587.00,VWS V14.01,2013-07-10 00:02:00,
2013-07-09 17:07:00,94.7,41.6,29.85,SSE,163,4.0,8.0,16,0.00,,---,0.00,578.00,VWS V14.01,2013-07-10 00:07:00,
2013-07-09 17:12:00,95.0,43.4,29.84,SSW,196,6.0,9.0,17,0.00,,---,0.00,568.00,VWS V14.01,2013-07-10 00:12:00,
2013-07-09 17:17:00,94.9,41.7,29.84,SSE,151,7.0,9.0,16,0.00,,---,0.00,550.00,VWS V14.01,2013-07-10 00:17:00,
2013-07-09 17:22:00,94.9,44.8,29.84,SSE,159,4.0,13.0,18,0.00,,---,0.00,534.00,VWS V14.01,2013-07-10 00:22:00,
2013-07-09 17:27:00,94.8,43.2,29.84,SSW,199,1.0,13.0,17,0.00,,---,0.00,519.00,VWS V14.01,2013-07-10 00:27:00,
2013-07-09 17:32:00,94.4,42.9,29.84,SSW,197,0.0,8.0,17,0.00,,---,0.00,503.00,VWS V14.01,2013-07-10 00:32:00,
2013-07-09 17:37:00,94.4,42.9,29.83,SSE,152,5.0,10.0,17,0.00,,---,0.00,483.00,VWS V14.01,2013-07-10 00:37:00,
2013-07-09 17:42:00,94.1,45.6,29.84,SE,136,7.0,10.0,19,0.00,,---,0.00,471.00,VWS V14.01,2013-07-10 00:42:00,
2013-07-09 17:47:00,94.0,46.9,29.83,SSE,154,6.0,11.0,20,0.00,,---,0.00,457.00,VWS V14.01,2013-07-10 00:47:00,
2013-07-09 17:52:00,93.5,46.5,29.84,South,184,2.0,11.0,20,0.00,,---,0.00,441.00,VWS V14.01,2013-07-10 00:52:00,
2013-07-09 17:57:00,92.4,48.1,29.84,SE,146,9.0,12.0,22,0.00,,---,0.00,427.00,VWS V14.01,2013-07-10 00:57:00,
2013-07-09 18:02:00,92.2,47.9,29.84,South,173,8.0,9.0,22,0.00,,---,0.00,411.00,VWS V14.01,2013-07-10 01:02:00,
2013-07-09 18:07:00,92.2,46.7,29.83,South,180,3.0,11.0,21,0.00,,---,0.00,397.00,VWS V14.01,2013-07-10 01:07:00,
2013-07-09 18:12:00,91.9,46.4,29.83,South,173,4.0,13.0,21,0.00,,---,0.00,380.00,VWS V14.01,2013-07-10 01:12:00,
2013-07-09 18:17:00,91.3,48.3,29.83,SSW,207,5.0,13.0,23,0.00,,---,0.00,362.00,VWS V14.01,2013-07-10 01:17:00,
2013-07-09 18:22:00,90.7,47.8,29.83,South,187,12.0,13.0,23,0.00,,---,0.00,352.00,VWS V14.01,2013-07-10 01:22:00,
2013-07-09 18:27:00,90.5,47.7,29.83,South,186,4.0,13.0,23,0.00,,---,0.00,334.00,VWS V14.01,2013-07-10 01:27:00,
2013-07-09 18:32:00,90.6,48.9,29.83,SE,140,6.0,10.0,24,0.00,,---,0.00,318.00,VWS V14.01,2013-07-10 01:32:00,
2013-07-09 18:37:00,90.6,48.9,29.83,South,177,4.0,12.0,24,0.00,,---,0.00,302.00,VWS V14.01,2013-07-10 01:37:00,
2013-07-09 18:42:00,90.6,48.9,29.83,South,175,5.0,12.0,24,0.00,,---,0.00,287.00,VWS V14.01,2013-07-10 01:42:00,
2013-07-09 18:47:00,90.7,50.1,29.83,South,185,5.0,12.0,25,0.00,,---,0.00,272.00,VWS V14.01,2013-07-10 01:47:00,
2013-07-09 18:52:00,90.4,49.8,29.83,SSW,209,6.0,12.0,25,0.00,,---,0.00,258.00,VWS V14.01,2013-07-10 01:52:00,
2013-07-09 18:57:00,89.6,51.2,29.83,SSE,155,5.0,12.0,27,0.00,,---,0.00,246.00,VWS V14.01,2013-07-10 01:57:00,
2013-07-09 19:02:00,89.3,50.0,29.84,South,183,11.0,11.0,26,0.00,,---,0.00,229.00,VWS V14.01,2013-07-10 02:02:00,
2013-07-09 19:07:00,88.8,50.5,29.84,South,182,4.0,11.0,27,0.00,,---,0.00,213.00,VWS V14.01,2013-07-10 02:07:00,
2013-07-09 19:12:00,88.5,51.3,29.84,SE,132,5.0,12.0,28,0.00,,---,0.00,193.00,VWS V14.01,2013-07-10 02:12:00,
2013-07-09 19:17:00,88.4,51.2,29.84,South,171,9.0,12.0,28,0.00,,---,0.00,178.00,VWS V14.01,2013-07-10 02:17:00,
2013-07-09 19:22:00,88.1,50.9,29.84,SW,223,5.0,12.0,28,0.00,,---,0.00,160.00,VWS V14.01,2013-07-10 02:22:00,
2013-07-09 19:27:00,87.6,51.5,29.84,SSE,168,2.0,14.0,29,0.00,,---,0.00,146.00,VWS V14.01,2013-07-10 02:27:00,
2013-07-09 19:32:00,87.3,51.2,29.84,SSE,161,2.0,8.0,29,0.00,,---,0.00,130.00,VWS V14.01,2013-07-10 02:32:00,
2013-07-09 19:37:00,87.0,51.8,29.84,SSE,158,2.0,9.0,30,0.00,,---,0.00,116.00,VWS V14.01,2013-07-10 02:37:00,
2013-07-09 19:42:00,86.7,52.5,29.84,SSE,164,0.0,9.0,31,0.00,,---,0.00,102.00,VWS V14.01,2013-07-10 02:42:00,
2013-07-09 19:47:00,86.3,52.1,29.84,South,186,2.0,9.0,31,0.00,,---,0.00,88.00,VWS V14.01,2013-07-10 02:47:00,
2013-07-09 19:52:00,85.6,52.4,29.84,SSW,209,2.0,9.0,32,0.00,,---,0.00,76.00,VWS V14.01,2013-07-10 02:52:00,
2013-07-09 19:57:00,84.8,51.7,29.84,SSW,208,5.0,11.0,32,0.00,,---,0.00,65.00,VWS V14.01,2013-07-10 02:57:00,
2013-07-09 20:02:00,84.1,51.9,29.84,South,180,5.0,5.0,33,0.00,,---,0.00,56.00,VWS V14.01,2013-07-10 03:02:00,
2013-07-09 20:07:00,83.5,51.4,29.84,SSE,163,0.0,7.0,33,0.00,,---,0.00,46.00,VWS V14.01,2013-07-10 03:07:00,
2013-07-09 20:12:00,83.1,51.0,29.84,South,175,2.0,7.0,33,0.00,,---,0.00,37.00,VWS V14.01,2013-07-10 03:12:00,
2013-07-09 20:17:00,82.6,51.4,29.85,WSW,248,4.0,7.0,34,0.00,,---,0.00,28.00,VWS V14.01,2013-07-10 03:17:00,
2013-07-09 20:22:00,82.2,51.1,29.85,South,184,1.0,7.0,34,0.00,,---,0.00,23.00,VWS V14.01,2013-07-10 03:22:00,
2013-07-09 20:27:00,81.8,51.5,29.85,SSW,205,5.0,7.0,35,0.00,,---,0.00,18.00,VWS V14.01,2013-07-10 03:27:00,
2013-07-09 20:32:00,81.4,51.2,29.85,SSW,207,4.0,5.0,35,0.00,,---,0.00,16.00,VWS V14.01,2013-07-10 03:32:00,
2013-07-09 20:37:00,81.0,51.6,29.85,SSW,192,4.0,9.0,36,0.00,,---,0.00,12.00,VWS V14.01,2013-07-10 03:37:00,
2013-07-09 20:42:00,80.7,51.3,29.85,SSE,151,5.0,9.0,36,0.00,,---,0.00,9.00,VWS V14.01,2013-07-10 03:42:00,
2013-07-09 20:47:00,80.4,51.0,29.86,South,178,0.0,9.0,36,0.00,,---,0.00,5.00,VWS V14.01,2013-07-10 03:47:00,
2013-07-09 20:52:00,79.9,50.6,29.86,SSW,200,2.0,9.0,36,0.00,,---,0.00,0.00,VWS V14.01,2013-07-10 03:52:00,
2013-07-09 20:57:00,79.4,50.2,29.86,SSW,203,2.0,9.0,36,0.00,,---,0.00,0.00,VWS V14.01,2013-07-10 03:57:00,
2013-07-09 21:01:00,79.0,49.8,29.87,SSW,209,0.0,0.0,36,0.00,,---,0.00,0.00,VWS V14.01,2013-07-10 04:01:00,
2013-07-09 21:06:00,78.7,49.5,29.87,SSW,193,0.0,0.0,36,0.00,,---,0.00,0.00,VWS V14.01,2013-07-10 04:06:00,
2013-07-09 21:11:00,78.4,49.3,29.87,SW,219,1.0,3.0,36,0.00,,---,0.00,0.00,VWS V14.01,2013-07-10 04:11:00,
2013-07-09 21:16:00,78.0,48.9,29.88,WSW,238,0.0,5.0,36,0.00,,---,0.00,0.00,VWS V14.01,2013-07-10 04:16:00,
2013-07-09 21:21:00,77.5,49.2,29.88,South,175,3.0,5.0,37,0.00,,---,0.00,0.00,VWS V14.01,2013-07-10 04:21:00,
2013-07-09 21:26:00,77.3,49.0,29.88,South,170,0.0,5.0,37,0.00,,---,0.00,0.00,VWS V14.01,2013-07-10 04:26:00,
2013-07-09 21:31:00,77.1,48.8,29.89,South,182,0.0,1.0,37,0.00,,---,0.00,0.00,VWS V14.01,2013-07-10 04:31:00,
2013-07-09 21:36:00,76.8,49.3,29.89,SSW,204,0.0,1.0,38,0.00,,---,0.00,0.00,VWS V14.01,2013-07-10 04:36:00,
2013-07-09 21:41:00,76.4,48.9,29.89,WSW,240,0.0,3.0,38,0.00,,---,0.00,0.00,VWS V14.01,2013-07-10 04:41:00,
2013-07-09 21:46:00,76.2,48.8,29.89,SSW,196,2.0,5.0,38,0.00,,---,0.00,0.00,VWS V14.01,2013-07-10 04:46:00,
2013-07-09 21:51:00,75.9,49.2,29.89,SSE,160,3.0,5.0,39,0.00,,---,0.00,0.00,VWS V14.01,2013-07-10 04:51:00,
2013-07-09 21:56:00,75.6,48.9,29.90,SW,233,2.0,5.0,39,0.00,,---,0.00,0.00,VWS V14.01,2013-07-10 04:56:00,
2013-07-09 22:01:00,75.5,49.5,29.89,SSW,208,0.0,2.0,40,0.00,,---,0.00,0.00,VWS V14.01,2013-07-10 05:01:00,
2013-07-09 22:06:00,75.2,49.2,29.90,SSW,204,0.0,2.0,40,0.00,,---,0.00,0.00,VWS V14.01,2013-07-10 05:06:00,
2013-07-09 22:11:00,75.0,49.1,29.90,SSW,205,0.0,2.0,40,0.00,,---,0.00,0.00,VWS V14.01,2013-07-10 05:11:00,
2013-07-09 22:16:00,74.7,49.5,29.90,SW,223,1.0,2.0,41,0.00,,---,0.00,0.00,VWS V14.01,2013-07-10 05:16:00,
2013-07-09 22:21:00,74.5,49.3,29.90,SW,232,0.0,2.0,41,0.00,,---,0.00,0.00,VWS V14.01,2013-07-10 05:21:00,
2013-07-09 22:26:00,74.2,49.7,29.90,WSW,243,1.0,3.0,42,0.00,,---,0.00,0.00,VWS V14.01,2013-07-10 05:26:00,
2013-07-09 22:31:00,74.0,49.5,29.90,WSW,248,3.0,3.0,42,0.00,,---,0.00,0.00,VWS V14.01,2013-07-10 05:31:00,
2013-07-09 22:36:00,73.7,49.8,29.90,SW,228,1.0,3.0,43,0.00,,---,0.00,0.00,VWS V14.01,2013-07-10 05:36:00,
2013-07-09 22:41:00,73.5,49.7,29.90,WSW,243,1.0,3.0,43,0.00,,---,0.00,0.00,VWS V14.01,2013-07-10 05:41:00,
2013-07-09 22:46:00,73.3,50.1,29.90,SW,215,3.0,3.0,44,0.00,,---,0.00,0.00,VWS V14.01,2013-07-10 05:46:00,
2013-07-09 22:51:00,73.2,50.6,29.90,SW,217,0.0,3.0,45,0.00,,---,0.00,0.00,VWS V14.01,2013-07-10 05:51:00,
2013-07-09 22:56:00,73.1,50.5,29.91,SW,234,1.0,5.0,45,0.00,,---,0.00,0.00,VWS V14.01,2013-07-10 05:56:00,
2013-07-09 23:01:00,73.0,51.0,29.91,SW,232,0.0,0.0,46,0.00,,---,0.00,0.00,VWS V14.01,2013-07-10 06:01:00,
2013-07-09 23:06:00,72.8,51.4,29.91,SW,217,1.0,1.0,47,0.00,,---,0.00,0.00,VWS V14.01,2013-07-10 06:06:00,
2013-07-09 23:11:00,72.5,51.2,29.91,SW,217,0.0,1.0,47,0.00,,---,0.00,0.00,VWS V14.01,2013-07-10 06:11:00,
2013-07-09 23:16:00,72.3,51.5,29.91,SW,221,0.0,2.0,48,0.00,,---,0.00,0.00,VWS V14.01,2013-07-10 06:16:00,
2013-07-09 23:21:00,72.1,51.9,29.91,SW,221,0.0,2.0,49,0.00,,---,0.00,0.00,VWS V14.01,2013-07-10 06:21:00,
2013-07-09 23:26:00,71.9,51.7,29.91,SW,222,0.0,2.0,49,0.00,,---,0.00,0.00,VWS V14.01,2013-07-10 06:26:00,
2013-07-09 23:31:00,71.6,51.5,29.91,SW,222,0.0,0.0,49,0.00,,---,0.00,0.00,VWS V14.01,2013-07-10 06:31:00,
2013-07-09 23:36:00,71.1,51.5,29.91,SW,222,0.0,1.0,50,0.00,,---,0.00,0.00,VWS V14.01,2013-07-10 06:36:00,
2013-07-09 23:41:00,70.6,51.6,29.91,SW,222,0.0,1.0,51,0.00,,---,0.00,0.00,VWS V14.01,2013-07-10 06:41:00,
2013-07-09 23:46:00,70.3,51.9,29.91,SW,222,1.0,1.0,52,0.00,,---,0.00,0.00,VWS V14.01,2013-07-10 06:46:00,
2013-07-09 23:51:00,70.3,51.9,29.91,SW,222,0.0,2.0,52,0.00,,---,0.00,0.00,VWS V14.01,2013-07-10 06:51:00,
2013-07-09 23:56:00,70.3,52.4,29.91,SW,222,0.0,2.0,53,0.00,,---,0.00,0.00,VWS V14.01,2013-07-10 06:56:00,